Location: Franzen
(48.6167°N, 15.3833°E)
Time: 02:24:51
(UTC+00:00)

Transit 2A - Pass Details

Date: 12 August 2021
Orbit: 594 x 964 km, 66.7° (Epoch: 27 September)

Event Time Altitude Azimuth Distance (km) Brightness Sun altitude
Rises 07:38:17 0° 320° (NW) 3,116 8.7 36.3°
Reaches altitude 10° 07:42:19 10° 352° (N) 2,291 8.3 36.9°
Maximum altitude 07:44:12 12° 14° (NNE) 2,212 8.4 37.2°
Drops below altitude 10° 07:46:09 10° 35° (NE) 2,382 8.8 37.5°
Sets 07:50:35 0° 66° (ENE) 3,416 9.8 38.2°
